sat.trackr.live / text

‹ back to catalog

STARLINK-36948

NORAD 68209 · 2026-053C

PAYLOAD ACTIVE UNKNOWN

§ Identity

Operator
Country
US
Launch date
2026-03-17
Launch site
AFWTR
Launch vehicle
Mass (kg)
RCS (m²)

Purposes: comms

External: N2YO · Heavens-Above · Gunter

§ Orbital elements

Epoch: 2026-09-19T10:06:10.107648Z

Period
93.91 min
Inclination
97.2859°
Eccentricity
0.0001671
Mean motion
15.33442195 rev/d
Perigee alt
464.4 km
Apogee alt
466.7 km
Semi-major
6,843.7 km
B*
3.3776e-4
RAAN
136.1469°
Arg perigee
86.4224°
Mean anomaly
273.7210°
Rev number
2,988

§ Raw data

STARLINK-369481 68209U 26053C   26262.42095032  .00010844  00000+0  33776-3 0  99992 68209  97.2859 136.1469 0001671  86.4224 273.7210 15.33442195 29884

JSON: /api/v1/satellites/68209 · /tle

For live sub-satellite position, see the globe view (requires WebGL).

§ Visibility from observer

Set your observer location to see the next 7 days of passes ≥ 10°. The values pass through the URL so the page stays shareable.

No JS? Fill the form by hand. The geolocation button needs JavaScript.